Showing default

GOES 17, 43226

Orbit data source: Space-Track

GOES 17, 43226 is a payload satellite owned by NOAA (US) in GEO that was launched on Thu, 01 Mar 2018 UTC via an ATLAS V 541 launch vehicle from the Air Force Eastern Test Range (AFETR). Payload-class satellites include a variety of spacecraft equipped with specific instruments for various scientific and technological missions. These include communications satellites like Starlink; space stations such as the ISS; scientific satellites like the Hubble; Earth observation satellites from companies like Planet Labs, Umbra, and HawkEye 360; GPS; miniature CubeSats for education and research; and military/defense satellites.

Loading next visibility...
Identifier
43226, 2018-022A
Orbit
GEO
Country
Flag of USUS
Related business
Manufacturer
LMCSS
Mission
On reserve Civil Weather
Bus & Motor
A2100, LEROS-1C
Mass
5,192 kg wet, 2,857 kg dry
Launch date (UTC)
2018-03-01 (8 years ago)
Launch vehicle
ATLAS V 541
Launch site
Air Force Eastern Test Range (AFETR)
Object type
Payload
Rocket body
Debris
Shape & HBR
Box + 1 Pan + 1 Ant, 20.0 m
Radar Cross Section
38.538 m², Large (>1 m²)

Expand to show TLE details & history
Last TLE update: 12 hours ago

TLE from 12 hours ago
0 GOES 17
1 43226U 18022A   26197.82249248 -.00000193  00000-0  00000+0 0  9997
2 43226   1.0113  85.2320 0000571  74.7447 341.2705  1.00270914 30729
Epoch: 2026-07-16T19:44Z
TLE epoch observation values (Epoch: 2026-07-16T19:44:23.350Z)
Latitude
0.86271°
Longitude
-89.49391°
Altitude
35,783.937 km
Speed
3.075 km/s
True Right ascension
09h 25m 02s
True Declination
0° 51' 43"
Sunlit
Object was in daylight at epoch
Visualization orbit readout
Latitude
Unknown
Longitude
Unknown
Altitude
Unknown
Speed
Unknown
Apparent Right ascension
Unknown
Apparent Declination
Unknown
Sunlit
N/A
Visualization observer readout
Local Sidereal Time
20:28:39
Azimuth
Unknown
Elevation
Unknown
Doppler factor
Unknown
Orbital elements
Apogee altitude
35,790.317 km
Perigee altitude
35,785.501 km
Semi-major axis
42,166.046 km
Eccentricity
0.00006
Inclination
1.0113°
RAAN
85.232°
Arg. of periapsis
74.7447°
True anomaly
341.2684°
Mean anomaly
341.2705°
Eccentric anomaly
341.26945°
Mean motion
0.25067 °/min
Orbital period
1,436.16 mins
BSTAR
0
Loading maneuver chart data...
Computing Atmospheric mass density...
Loading historical data...
Loading historical data...
Loading historical data...
Loading historical data...
Loading historical data...
Loading historical data...
Loading historical data...
Other satellites on launch #22 in the year 2018 (2018-03-01 UTC)

Documentation

Showing up to 5 results
|